Weather History for Stuttgart, AR

Change the Weather History Date:

Saturday, October 6, 2012

  Actual Average Record
Temperature  
Mean Temperature 48 °F -  
Max Temperature 53 °F 75 °F 89 °F (1997)
Min Temperature 44 °F 53 °F 39 °F (2001)
Degree Days  
Heating Degree Days 16    
Moisture  
Dew Point 39 °F    
Average Humidity 73    
Maximum Humidity 87    
Minimum Humidity 47    
Precipitation  
Precipitation 0.35 in - - ()
Sea Level Pressure  
Sea Level Pressure 30.21 in    
Wind  
Wind Speed 15 mph (North)    
Max Wind Speed 21 mph    
Max Gust Speed 28 mph    
Visibility 10 miles    
Events Thunderstorm    
Averages and records for this station are not official NWS values.
T = Trace of Precipitation, MM = Missing Value Source: NWS Daily Summary

Daily Weather History Graph

Daily Weather History Graph

Search for Another Location

Airport:

Trip Planner

Search our weather history database for the weather conditions in past years. The results will help you decide how hot, cold, wet, or windy it might be!

Date:

Astronomy

Oct. 06, 2012 Rise Set
Actual Time 7:05 AM CDT 6:42 PM CDT
Civil Twilight 6:39 AM CDT 7:07 PM CDT
Nautical Twilight 6:10 AM CDT 7:37 PM CDT
Astronomical Twilight 5:41 AM CDT 8:06 PM CDT
Moon 11:09 PM CDT (10/6) 12:48 PM CDT (10/6)
Length of Visible Light 12h 28m
Length of Day
11h 37m
Waning Gibbous, 65% of the Moon is Illuminated
Oct 6
Waning Gibbous
Oct 8
Last Quarter
Oct 15
New
Oct 21
First Quarter
Oct 29
Full

Hourly Weather History & Observations

Time (CDT) Temp. Windchill Dew Point Humidity Pressure Visibility Wind Dir Wind Speed Gust Speed Precip Events Conditions
12:15 AM 48.2 °F - 44.6 °F 87% 30.16 in 10.0 mi North 16.1 mph 25.3 mph N/A   Overcast
12:35 AM 48.2 °F - 42.8 °F 82% 30.18 in 10.0 mi North 17.3 mph 27.6 mph N/A   Overcast
12:55 AM 48.2 °F - 42.8 °F 82% 30.17 in 10.0 mi North 19.6 mph 27.6 mph N/A   Overcast
1:15 AM 48.2 °F - 42.8 °F 82% 30.17 in 10.0 mi North 17.3 mph 25.3 mph N/A   Mostly Cloudy
1:35 AM 48.2 °F - 42.8 °F 82% 30.17 in 10.0 mi NNE 16.1 mph 25.3 mph N/A   Overcast
1:56 AM 48.2 °F - 42.8 °F 82% 30.18 in 10.0 mi North 13.8 mph - N/A   Overcast
2:15 AM 48.2 °F - 42.8 °F 82% 30.18 in 10.0 mi North 18.4 mph - N/A   Overcast
2:35 AM 48.2 °F - 41.0 °F 76% 30.19 in 10.0 mi North 15.0 mph 21.9 mph N/A   Overcast
2:55 AM 48.2 °F - 42.8 °F 82% 30.17 in 10.0 mi NNE 13.8 mph - N/A   Overcast
3:15 AM 48.2 °F - 41.0 °F 76% 30.17 in 10.0 mi NNE 17.3 mph 24.2 mph N/A   Overcast
3:35 AM 48.2 °F - 39.2 °F 71% 30.17 in 10.0 mi North 17.3 mph 23.0 mph N/A   Overcast
3:55 AM 48.2 °F - 39.2 °F 71% 30.18 in 10.0 mi North 17.3 mph 21.9 mph N/A   Overcast
4:16 AM 46.4 °F 39.2 °F 39.2 °F 76% 30.18 in 10.0 mi North 18.4 mph 24.2 mph N/A   Overcast
4:35 AM 46.4 °F 40.4 °F 39.2 °F 76% 30.18 in 10.0 mi NNE 13.8 mph - N/A   Overcast
4:55 AM 46.4 °F 39.2 °F 39.2 °F 76% 30.18 in 10.0 mi NNE 18.4 mph 24.2 mph N/A   Overcast
5:15 AM 46.4 °F 39.2 °F 37.4 °F 71% 30.20 in 10.0 mi North 18.4 mph - N/A   Overcast
5:35 AM 46.4 °F 39.8 °F 39.2 °F 76% 30.20 in 10.0 mi North 16.1 mph 25.3 mph N/A   Overcast
5:55 AM 46.4 °F 39.8 °F 39.2 °F 76% 30.21 in 10.0 mi North 16.1 mph - N/A   Overcast
6:15 AM 46.4 °F 39.0 °F 37.4 °F 71% 30.21 in 10.0 mi North 19.6 mph - N/A   Overcast
6:35 AM 46.4 °F 39.5 °F 37.4 °F 71% 30.22 in 10.0 mi North 17.3 mph 24.2 mph N/A   Overcast
6:55 AM 46.4 °F 39.0 °F 37.4 °F 71% 30.22 in 10.0 mi NNE 19.6 mph - N/A   Overcast
7:15 AM 46.4 °F 39.5 °F 37.4 °F 71% 30.23 in 10.0 mi North 17.3 mph 21.9 mph N/A   Overcast
7:35 AM 46.4 °F 40.1 °F 35.6 °F 66% 30.23 in 10.0 mi NNE 15.0 mph 21.9 mph N/A   Overcast
7:55 AM 46.4 °F 39.0 °F 35.6 °F 66% 30.23 in 10.0 mi NNE 19.6 mph - N/A   Overcast
8:15 AM 46.4 °F 39.5 °F 35.6 °F 66% 30.24 in 10.0 mi NNE 17.3 mph - N/A   Overcast
8:35 AM 46.4 °F 39.2 °F 35.6 °F 66% 30.24 in 10.0 mi NNE 18.4 mph 24.2 mph N/A   Overcast
8:55 AM 46.4 °F 39.2 °F 35.6 °F 66% 30.25 in 10.0 mi NNE 18.4 mph - N/A   Overcast
9:15 AM 48.2 °F - 35.6 °F 62% 30.24 in 10.0 mi NE 18.4 mph 23.0 mph N/A   Overcast
9:35 AM 48.2 °F - 35.6 °F 62% 30.24 in 10.0 mi NNE 17.3 mph 20.7 mph N/A   Overcast
9:55 AM 50.0 °F - 35.6 °F 58% 30.21 in 10.0 mi NE 20.7 mph - N/A   Overcast
10:15 AM 51.8 °F - 33.8 °F 50% 30.18 in 10.0 mi NE 19.6 mph - N/A   Mostly Cloudy
10:36 AM 51.8 °F - 33.8 °F 50% 30.20 in 10.0 mi NE 18.4 mph 24.2 mph N/A   Mostly Cloudy
10:55 AM 53.6 °F - 33.8 °F 47% 30.20 in 10.0 mi NE 15.0 mph - N/A   Mostly Cloudy
11:15 AM 51.8 °F - 33.8 °F 50% 30.22 in 10.0 mi NNE 15.0 mph - N/A   Overcast
11:35 AM 51.8 °F - 35.6 °F 54% 30.23 in 10.0 mi North 11.5 mph - N/A Thunderstorm Overcast
11:55 AM 51.8 °F - 33.8 °F 50% 30.23 in 10.0 mi North 16.1 mph - N/A Thunderstorm Overcast
12:15 PM 48.2 °F - 37.4 °F 66% 30.22 in 10.0 mi NNE 8.1 mph - 0.07 in Thunderstorm Thunderstorm
12:35 PM 46.4 °F 41.5 °F 39.2 °F 76% 30.21 in 10.0 mi North 10.4 mph 19.6 mph 0.13 in Thunderstorm Overcast
1:15 PM 44.6 °F 38.1 °F 39.2 °F 81% 30.23 in 4.0 mi NNW 13.8 mph - 0.05 in Thunderstorm Overcast
1:35 PM 44.6 °F 37.8 °F 39.2 °F 81% 30.23 in 8.0 mi NNW 15.0 mph - 0.08 in Thunderstorm Overcast
1:55 PM 44.6 °F 38.8 °F 39.2 °F 81% 30.21 in 10.0 mi North 11.5 mph - 0.09 in Thunderstorm Overcast
2:15 PM 46.4 °F 41.9 °F 39.2 °F 76% 30.20 in 10.0 mi North 9.2 mph - N/A Thunderstorm Overcast
2:35 PM 44.6 °F 39.2 °F 39.2 °F 81% 30.20 in 9.0 mi North 10.4 mph - 0.08 in   Overcast
2:55 PM 46.4 °F 42.9 °F 41.0 °F 81% 30.21 in 10.0 mi NNW 6.9 mph - 0.12 in   Overcast
3:15 PM 46.4 °F 42.4 °F 41.0 °F 81% 30.20 in 10.0 mi North 8.1 mph - N/A Thunderstorm Overcast
3:35 PM 46.4 °F 42.9 °F 41.0 °F 81% 30.20 in 10.0 mi North 6.9 mph - 0.01 in   Overcast
4:16 PM 48.2 °F - 42.8 °F 82% 30.17 in 10.0 mi North 8.1 mph - N/A   Overcast
4:35 PM 48.2 °F - 42.8 °F 82% 30.18 in 10.0 mi North 8.1 mph - N/A   Overcast
4:55 PM 50.0 °F - 42.8 °F 76% 30.18 in 10.0 mi North 11.5 mph - N/A Thunderstorm Overcast
5:15 PM 48.2 °F - 41.0 °F 76% 30.19 in 10.0 mi North 11.5 mph - N/A   Overcast
5:35 PM 48.2 °F - 41.0 °F 76% 30.17 in 10.0 mi North 8.1 mph - N/A   Overcast
5:56 PM 48.2 °F - 42.8 °F 82% 30.18 in 10.0 mi North 8.1 mph - N/A   Overcast
6:15 PM 48.2 °F - 41.0 °F 76% 30.20 in 10.0 mi North 10.4 mph - N/A   Overcast
6:35 PM 48.2 °F - 41.0 °F 76% 30.19 in 10.0 mi North 10.4 mph - N/A   Overcast
6:55 PM 48.2 °F - 41.0 °F 76% 30.19 in 10.0 mi North 12.7 mph - N/A   Overcast
7:15 PM 48.2 °F - 41.0 °F 76% 30.20 in 10.0 mi North 15.0 mph - N/A   Overcast
7:35 PM 48.2 °F - 39.2 °F 71% 30.20 in 10.0 mi North 18.4 mph 25.3 mph N/A   Overcast
7:55 PM 46.4 °F 40.1 °F 37.4 °F 71% 30.20 in 10.0 mi North 15.0 mph 24.2 mph N/A   Overcast
8:15 PM 46.4 °F 40.1 °F 37.4 °F 71% 30.20 in 10.0 mi NNE 15.0 mph - N/A   Overcast
8:35 PM 46.4 °F 41.5 °F 37.4 °F 71% 30.24 in 10.0 mi North 10.4 mph - N/A   Overcast
8:55 PM 46.4 °F 41.5 °F 39.2 °F 76% 30.23 in 10.0 mi North 10.4 mph - N/A   Overcast
9:15 PM 46.4 °F 42.4 °F 39.2 °F 76% 30.25 in 10.0 mi North 8.1 mph - N/A   Overcast
9:35 PM 46.4 °F 41.9 °F 39.2 °F 76% 30.21 in 10.0 mi NNE 9.2 mph - N/A   Overcast
9:56 PM 46.4 °F 41.9 °F 39.2 °F 76% 30.23 in 10.0 mi North 9.2 mph - N/A   Overcast
10:15 PM 46.4 °F 41.5 °F 39.2 °F 76% 30.25 in 10.0 mi North 10.4 mph - N/A   Overcast
10:35 PM 46.4 °F 41.5 °F 39.2 °F 76% 30.24 in 10.0 mi North 10.4 mph - N/A   Overcast
10:55 PM 46.4 °F 42.9 °F 39.2 °F 76% 30.25 in 10.0 mi North 6.9 mph - N/A   Overcast
11:15 PM 46.4 °F 41.9 °F 39.2 °F 76% 30.25 in 10.0 mi NNE 9.2 mph - N/A   Overcast
11:35 PM 46.4 °F 42.4 °F 39.2 °F 76% 30.25 in 10.0 mi North 8.1 mph - N/A   Overcast
11:55 PM 46.4 °F 42.9 °F 37.4 °F 71% 30.25 in 10.0 mi North 6.9 mph - N/A   Overcast